TIME,DELAY(SENSOR),PRES,T(CTD),SAL,OXYGEN,RAWTEMP,T(OPTODE),TCPHASE,FLUOR,BETA(BETA700),BETA(BETA412),BETA(BETA440),CDOM,C(CSC),ED(ED412.40),ED(ED444.00),ED(ED489.70),ED(ED554.30),LU(LU411.80),LU(LU443.40),LU(LU489.60),LU(LU554.10),COMP,TILTX,TILTX(TILTY),CHECK
1383687279,5807,497.1700134277344000,6.8947000503540040,34.1296005249023440,80.9804611206054700,590.6884155273438000,6.8846569061279300,48.6573982238769500,52,104,88,81,77,15264,2147748736,2147426066,2148006354,2147873261,2147626313,2147071259,2148246784,2147201773,1749,4,13,43475
1383687400,5812,486.8500061035156000,7.0685000419616700,34.1271018981933600,86.7747726440429700,585.7158813476562000,7.0447349548339840,47.9155693054199200,51,102,83,78,76,15264,2147744832,2147426523,2148007698,2147873984,2147624822,2147074102,2148242468,2147200045,1429,3,13,50714
1383687546,5809,475.3699951171875000,7.2311000823974610,34.1212005615234400,94.4411468505859400,580.4826049804688000,7.2129650115966800,46.9828987121582000,51,104,86,79,76,15264,2147744594,2147425984,2148007506,2147873444,2147621915,2147076388,2148247506,2147201033,2971,3,13,20535
1383687689,5804,464.8800048828125000,7.3498001098632810,34.1151008605957000,101.0147018432617200,576.7147216796875000,7.3339347839355470,46.2205390930175800,51,107,87,80,74,15262,2147740891,2147424064,2148008978,2147873846,2147624612,2147078720,2148242742,2147203172,1430,3,13,25050
1383687876,5808,451.5899963378906000,7.5208001136779785,34.0971984863281250,113.3320007324218800,570.5209960937500000,7.5325131416320800,44.8701782226562500,50,104,86,80,75,15267,2147746569,2147425673,2148004772,2147872356,2147624832,2147078720,2148244004,2147203209,171,4,13,25274
1383688026,5804,439.5100097656250000,7.8053002357482910,34.0959014892578100,123.1621017456054700,562.4708862304688000,7.7901039123535160,43.7927894592285160,51,103,87,80,75,15263,2147743506,2147421312,2148007689,2147875401,2147619995,2147077750,2148238253,2147204909,2689,3,13,20913
1383688180,5808,426.9299926757812500,8.1731996536254880,34.0901985168457000,138.9414062500000000,551.0935058593750000,8.1532230377197270,42.1838188171386700,50,104,88,80,74,15266,2147741257,2147425508,2148008338,2147875117,2147617947,2147077897,2148236608,2147206372,1713,4,12,41385
1383688307,5807,415.6799926757812500,8.6059999465942380,34.0952987670898440,148.7944946289062500,537.4998779296875000,8.5856723785400390,41.1218910217285160,50,104,84,79,72,15262,2147739346,2147424676,2148005302,2147872850,2147618340,2147086592,2148237083,2147204196,738,4,12,59721
1383688418,5808,404.8800048828125000,8.8696002960205080,34.1052017211914060,154.6867980957031200,528.4827270507812000,8.8717250823974610,40.4916992187500000,50,104,91,79,73,15261,2147737472,2147424493,2148006034,2147873673,2147620754,2147084251,2148228745,2147204955,3468,4,13,15751
1383688530,5808,393.7500000000000000,9.0516004562377930,34.1025009155273440,161.0895996093750000,522.6563720703125000,9.0562171936035160,39.8927497863769500,50,105,86,79,71,15262,2147737481,2147427986,2148004077,2147877110,2147613760,2147089618,2148235611,2147204754,2444,4,13,7518
1383688640,5811,382.7600097656250000,9.4370002746582030,34.1108016967773440,170.4987030029297000,510.7221069335937500,9.4333267211914060,38.9857406616210940,49,105,87,79,70,15262,2147736091,2147425088,2148006281,2147875986,2147614144,2147093449,2148233124,2147202788,1119,4,13,18658
1383688750,5803,372.1199951171875000,9.8634004592895500,34.1248016357421900,181.4259948730468800,497.0281066894531000,9.8647737503051760,37.9806785583496100,50,103,86,79,73,15260,2147734125,2147424832,2148004900,2147874505,2147611017,2147092781,2148229083,2147206756,3423,3,13,57122
1383688862,5807,361.4599914550781000,10.2898998260498050,34.1375999450683600,191.7248992919922000,484.1323852539062500,10.2698898315429690,37.0790596008300800,50,104,88,80,70,15262,2147733558,2147426112,2148006061,2147872237,2147608832,2147097810,2148231168,2147207762,2553,4,13,1200
1383688983,5813,349.9700012207031000,10.8798999786376950,34.1651000976562500,209.0196990966797000,464.9359130859375000,10.8709402084350590,35.6957588195800800,48,104,86,80,69,15262,2147735094,2147425115,2148001682,2147872914,2147606043,2147102326,2148221668,2147207881,3151,3,13,10981
1383689104,5807,338.9400024414062500,11.1944999694824220,34.1795005798339840,212.6909027099609400,454.8858947753906000,11.1847200393676760,35.3185997009277340,49,105,83,79,67,15263,2147730130,2147426688,2148007990,2147873161,2147601984,2147102710,2148220233,2147209782,3123,3,13,26207
1383689227,5808,328.2200012207031000,11.5474004745483400,34.1893997192382800,212.2655029296875000,441.0895996093750000,11.6145000457763670,35.1203498840332000,48,105,85,79,69,15262,2147726829,2147427602,2147999917,2147876690,2147601627,2147107922,2148217161,2147207789,1888,3,14,7908
1383689359,5808,317.0400085449219000,12.1357002258300780,34.2364006042480500,206.2702941894531200,424.1733093261719000,12.1400699615478520,35.1988296508789060,49,102,86,80,67,15261,2147726866,2147427648,2148010560,2147876745,2147597476,2147113426,2148216640,2147209005,1469,3,14,31831
1383689483,5807,306.0599975585937500,12.2697000503540040,34.2332000732421900,208.5382995605468800,418.1163024902344000,12.3278999328613280,34.9699211120605500,48,102,85,79,66,15261,2147724525,2147430674,2148017545,2147872146,2147595017,2147113993,2148220790,2147208694,776,3,14,29297
1383689604,5810,295.6600036621094000,13.0895004272460940,34.3069992065429700,209.5437011718750000,394.2434997558594000,13.0665197372436520,34.5374794006347660,49,102,87,78,66,15259,2147723684,2147433472,2148022957,2147872265,2147593252,2147118692,2148220626,2147213202,3185,3,13,30556
1383689747,5810,284.4299926757812500,13.3811998367309570,34.3415985107421900,210.1757965087890600,384.1913146972656000,13.3767995834350590,34.3463096618652340,49,103,85,79,67,15260,2147721389,2147434688,2148029668,2147874121,2147592914,2147127634,2148220013,2147211922,2793,3,14,21886
1383689892,5806,274.0700073242187500,13.9358997344970700,34.3843994140625000,210.6522064208984400,366.1470947265625000,13.9327602386474610,34.0433998107910160,47,103,83,78,66,15256,2147717485,2147438363,2148046409,2147874925,2147589613,2147131675,2148224338,2147208786,2660,3,13,1168
1383690068,5809,263.2799987792969000,14.4250001907348630,34.4277000427246100,212.6687927246093800,350.1376953125000000,14.4250602722167970,33.6876296997070300,48,103,86,80,66,15257,2147721627,2147448658,2148059492,2147877449,2147587309,2147135990,2148227282,2147212306,1223,3,14,49618
1383690239,5808,250.5700073242187500,14.8023996353149410,34.4606018066406250,212.7922058105468800,337.8341064453125000,14.8028697967529300,33.4971084594726560,48,105,87,80,65,15250,2147717632,2147456118,2148092269,2147872237,2147585609,2147152768,2148239643,2147216896,3384,3,13,29930
1383690364,5811,239.3899993896484400,15.5682001113891600,34.5293998718261700,211.5538024902343800,313.0595092773437500,15.5623798370361330,33.2012214660644500,48,103,88,79,66,15252,2147718710,2147467821,2148114422,2147872192,2147583771,2147158738,2148247058,2147219264,2757,2,14,1543
1383690488,5805,228.5200042724609400,16.3325996398925780,34.6102981567382800,216.6779937744140600,288.3294067382812500,16.3192100524902340,32.5609397888183600,50,104,85,79,64,15250,2147721225,2147497261,2148187008,2147874587,2147583844,2147181156,2148280475,2147224338,2514,2,15,26994
1383690620,5809,217.3399963378906200,16.7310009002685550,34.6585998535156250,218.1983032226562500,273.4814147949219000,16.7731494903564450,32.2679595947265600,50,104,87,79,64,15249,2147725376,2147544173,2148290194,2147873846,2147580589,2147210157,2148333568,2147223789,2615,2,14,22109
1383690755,5806,205.8699951171875000,17.3617000579834000,34.7270011901855500,215.2922058105468800,251.2926025390625000,17.4510593414306640,32.1112289428710940,51,104,86,79,64,15247,2147734546,2147565650,2148309814,2147874651,2147580315,2147224694,2148333248,2147222125,2308,2,13,58878
1383690854,5810,197.4100036621093800,17.9099006652832030,34.7953987121582000,214.7111968994140600,236.5700073242187500,17.9006996154785160,31.9372596740722660,52,106,83,79,63,15246,2147719405,2147489261,2148119387,2147872905,2147574592,2147187968,2148241462,2147217545,1320,2,14,51876
1383690909,5806,192.7400054931640600,18.1551990509033200,34.8280982971191400,215.0287017822265600,229.2584991455078000,18.1239795684814450,31.8186607360839840,53,109,88,80,64,15241,2147720347,2147496237,2148120283,2147872301,2147572251,2147192100,2148241097,2147219565,680,3,14,33733
1383690964,5809,188.2100067138672000,18.2539997100830080,34.8480987548828100,215.2982025146484400,224.5305938720703000,18.2683601379394530,31.7387599945068360,53,104,85,80,64,15241,2147752018,2147628571,2148394230,2147874258,2147584777,2147265920,2148363940,2147226304,1061,2,14,54385
1383691019,5807,183.7599945068359400,18.6797008514404300,34.8982009887695300,214.8471069335937500,211.9169006347656200,18.6535797119140620,31.5891704559326170,55,105,85,79,63,15237,2147738587,2147564891,2148256722,2147877540,2147578962,2147245796,2148313920,2147224603,521,2,14,48113
1383691102,5809,178.7500000000000000,18.9136009216308600,34.9378013610839840,216.2628021240234400,204.9131927490234400,18.8675003051757800,31.4177207946777340,55,105,86,80,63,15233,2147827821,2147927085,2149005019,2147876269,2147615259,2147447853,2148660214,2147253065,669,2,15,11998
1383691201,5806,174.7400054931640600,19.3607997894287100,35.0056991577148440,216.0213928222656200,190.1903991699218800,19.3173007965087900,31.2300605773925780,58,106,86,81,62,15232,2147852982,2147979364,2149087021,2147875840,2147622966,2147484516,2148704320,2147254637,2065,2,15,49275
1383691344,5808,171.1999969482422000,19.7661991119384770,35.0601005554199200,216.6215057373047000,181.4237060546875000,19.5852298736572270,31.0799102783203120,63,106,87,82,62,15228,2147871021,2148017600,2149139977,2147876644,2147628937,2147512320,2148725467,2147256192,2912,2,15,60038
1383691473,5811,166.3699951171875000,20.0282993316650400,35.1020011901855500,217.3249969482422000,167.3737030029297000,20.0148296356201170,30.8542995452880860,65,108,88,80,61,15227,2147922614,2148138596,2149345106,2147877924,2147648658,2147580114,2148814509,2147263433,2575,2,15,15931
1383691550,5807,162.2299957275390600,20.2304992675781250,35.1251983642578100,217.4517059326172000,161.1539001464843800,20.2051105499267580,30.7645301818847660,69,110,86,80,62,15220,2147993426,2148327286,2149692032,2147882294,2147680612,2147693906,2148980489,2147275721,1971,2,15,19876
1383691627,5809,158.1600036621093800,20.4447994232177730,35.1442985534668000,217.0599060058593800,153.4788055419922000,20.4400100708007800,30.6830501556396500,74,110,85,81,61,15199,2148051931,2148449490,2149897024,2147878107,2147702765,2147763346,2149069513,2147283099,1467,2,15,23194
1383691707,5812,154.1699981689453000,20.5832996368408200,35.1599998474121100,216.9062957763672000,149.8385925292968800,20.5514602661132800,30.6424293518066400,77,115,87,81,62,15210,2148099949,2148535314,2150019172,2147880722,2147722230,2147803492,2149117595,2147289462,1335,2,15,57518
1383691784,5809,150.7400054931640600,20.7427005767822270,35.1964988708496100,217.8374023437500000,143.0402984619140600,20.7596607208251950,30.5039901733398440,77,111,89,82,61,15214,2148072969,2148419995,2149800155,2147878372,2147707474,2147733696,2149001965,2147281280,1594,2,15,10273
1383691894,5805,147.2100067138672000,20.9654998779296880,35.1974983215332000,218.2671966552734400,137.2144012451172000,20.9381809234619140,30.4050693511962900,84,114,87,82,62,15201,2148230820,2148800530,2150498404,2147884525,2147767405,2147938770,2149315081,2147302646,2490,2,15,23941
1383692065,5807,142.7599945068359400,21.1672000885009770,35.2254981994628900,220.5066986083984400,129.8437042236328000,21.1641292572021500,30.1932106018066400,89,115,88,81,61,15193,2148064777,2148268178,2149405577,2147881947,2147697033,2147633325,2148795949,2147268973,959,1,15,50997
1383692164,5807,138.5500030517578000,21.3698005676269530,35.2340011596679700,221.0014953613281200,123.4227981567382800,21.3610897064209000,30.0841999053955080,96,115,86,82,63,15186,2148043236,2148162953,2149176868,2147879561,2147689536,2147569526,2148692873,2147261211,3426,2,15,7031
1383692252,5806,134.6600036621093800,21.4983005523681640,35.2499008178710940,222.2760009765625000,118.4561996459961000,21.5135097503662100,29.9550590515136720,99,117,86,81,61,15177,2148441243,2149012534,2150671049,2147893686,2147844992,2148008265,2149374729,2147311222,3074,1,15,52666
1383692339,5810,130.2400054931640600,21.7017002105712900,35.2713012695312500,224.9528961181640600,112.4074020385742200,21.6992301940917970,29.7433395385742200,104,118,88,80,61,15171,2149433197,2150998985,2154013741,2147926134,2148206226,2148926601,2150667940,2147417490,2349,1,15,45225
1383692410,5810,125.8499984741211000,21.9016990661621100,35.2747993469238300,226.4841003417968800,106.4264984130859400,21.8829898834228500,29.5904998779296880,112,119,86,80,61,15164,2148899474,2149712512,2151609837,2147907611,2148007661,2148288841,2149652178,2147341906,1837,2,15,55688
1383692465,5808,122.5199966430664000,21.9969005584716800,35.2887001037597660,227.7969970703125000,104.1856002807617200,21.9518699645996100,29.4978199005126950,112,120,88,81,60,15147,2149919881,2151618898,2154691593,2147938468,2148389860,2149176009,2150896914,2147441618,1947,2,15,45338
1383692520,5810,119.3000030517578100,22.0221996307373050,35.2909011840820300,229.3108978271484400,101.8998031616211000,22.0221405029296880,29.3951206207275400,117,119,89,82,61,15157,2150944530,2153257426,2157015872,2147972242,2148761600,2149898642,2151786980,2147515437,2504,2,15,31107
1383692586,5808,115.4800033569336000,22.1053009033203120,35.2905998229980500,230.7622985839843800,99.2949371337890600,22.1022396087646500,29.2918491363525400,122,119,88,81,61,15150,2151675684,2154210148,2158140379,2147994925,2149024941,2150297334,2152228937,2147562477,2874,2,15,24136
1383692665,5808,111.4199981689453100,22.1429004669189450,35.2677001953125000,231.5960998535156200,97.6074981689453100,22.1541500091552730,29.2306995391845700,122,123,86,82,61,15140,2153201097,2156352054,2160908544,2148040356,2149557129,2151150052,2153204589,2147654802,3121,2,15,30502
1383692753,5811,108.0400009155273400,22.3022003173828120,35.2196006774902340,227.2756042480468800,93.0213470458984400,22.2952594757080080,29.3796806335449220,150,124,88,82,61,15132,2154747574,2158346368,2163055872,2148087524,2150084909,2151903323,2153948580,2147735908,2093,1,15,60215
1383692885,5810,104.1600036621093800,22.4629993438720700,35.2086982727050800,224.8829040527343800,87.7925033569336000,22.4562397003173830,29.4295997619628900,165,123,87,83,61,15104,2150658560,2151237129,2152346514,2147934107,2148600438,2148832777,2149905005,2147383762,931,2,15,45703
1383692999,5811,99.7399978637695300,22.8708000183105470,35.2207984924316400,226.0592956542968800,75.0472335815429700,22.8490390777587900,29.2090892791748050,145,122,88,83,61,15103,2160726601,2165384137,2169892205,2148235840,2152011026,2154430363,2156423250,2148000246,1138,1,15,52667
1383693054,5808,97.0999984741211000,23.1154003143310550,35.2443008422851560,228.0798034667968800,65.6869964599609400,23.1379299163818360,28.9922599792480470,126,121,90,83,60,15121,2162529398,2167195273,2171404626,2148296612,2152644105,2155201344,2157127954,2148078390,754,1,15,36055
1383693109,5809,94.7900009155273400,23.2819995880126950,35.2605018615722660,231.3939056396484400,61.6196289062500000,23.2635803222656250,28.7833099365234380,109,120,90,83,59,15124,2164604882,2169606144,2173987090,2148381001,2153452214,2156319579,2158255387,2148194294,3258,1,16,29834
1383693164,5808,93.0800018310546900,23.3334007263183600,35.2700004577636700,234.4757995605468800,59.9996490478515600,23.3136405944824220,28.6189308166503900,101,122,89,84,58,15131,2165863844,2171034742,2175274761,2148415798,2154010084,2156975725,2158846116,2148253046,2818,2,16,21781
1383693241,5812,91.4100036621093800,23.3945999145507800,35.2799987792968750,235.6107025146484400,58.8891105651855500,23.3479690551757800,28.5523796081542970,98,121,89,83,57,15130,2168035136,2173303844,2177196379,2148491849,2154861769,2157977371,2159622582,2148343277,2868,2,16,62582
1383693344,5809,88.9800033569336000,23.5214996337890620,35.2751998901367200,238.5554962158203000,53.6241607666015600,23.5107803344726560,28.3518695831298830,93,124,88,83,58,15118,2174091958,2180054390,2183687405,2148700425,2157578907,2161418944,2162744448,2148651117,3083,1,15,8815
1383693399,5806,87.0599975585937500,23.5414009094238280,35.2739982604980500,238.6696014404297000,52.3980598449707000,23.5487194061279300,28.3314704895019530,89,126,89,84,59,15125,2177878272,2183611995,2186328457,2148808228,2159320978,2163483894,2164437229,2148827419,3295,1,16,37549
1383693454,5807,85.0699996948242200,23.9058990478515620,35.2974014282226560,239.4306945800781200,41.8454589843750000,23.8754806518554700,28.1655101776123050,87,124,89,84,58,15119,2181319277,2187337334,2189522468,2148935533,2160940717,2165222418,2165693293,2148971794,2614,1,15,33179
1383693520,5808,82.9800033569336000,24.0757007598876950,35.3065986633300800,241.7673950195312500,36.0585784912109400,24.0548992156982420,27.9891300201416000,85,126,90,84,57,15128,2185431113,2191647314,2193110994,2149105014,2163236617,2167740425,2167463762,2149169289,1826,1,16,45036
1383693586,5807,81.1200027465820300,24.2064990997314450,35.3045997619628900,242.8945007324218800,32.9537391662597660,24.1512393951416000,27.9008598327636720,83,124,92,84,59,15125,2187724763,2193524635,2194640612,2149243602,2164677312,2169269174,2168582976,2149289499,1192,1,16,64290
1383693673,5808,78.3499984741211000,24.3024997711181640,35.3176002502441400,244.2664031982422000,28.4363403320312500,24.2914791107177730,27.7848396301269530,80,123,91,84,58,15123,2189773833,2194463232,2194300873,2149367616,2166530953,2170807707,2169368137,2149395437,1986,1,16,43134
1383693732,5808,75.6299972534179700,24.7730998992919920,35.3614006042480500,244.9452972412109400,14.4973297119140620,24.7249107360839840,27.5836696624755860,77,124,90,86,55,15118,2198912155,2204447040,2203954624,2149872009,2171605101,2176592045,2173947684,2149892553,1867,1,16,40440
1383693787,5808,73.7900009155273400,24.9379997253417970,35.3757019042968750,247.2557067871093800,8.7328786849975590,24.9044609069824220,27.4133491516113280,77,124,91,84,56,15117,2203392192,2208522934,2207664347,2150181101,2174065792,2179066880,2175736493,2150085110,2422,1,16,54523
1383693853,5808,72.2200012207031200,24.9934005737304700,35.3773994445800800,249.0146026611328000,6.4883890151977540,24.9744300842285160,27.3107700347900400,76,126,89,85,58,15104,2207360795,2212559104,2211204416,2150382674,2177466066,2182899602,2178700836,2150379620,2291,1,16,13692
1383693974,5806,69.3700027465820300,25.0835990905761720,35.3785018920898440,249.8336029052734400,3.0286159515380860,25.0823307037353500,27.2336902618408200,74,127,93,85,57,15107,2218949668,2222923593,2219657344,2151144228,2185201362,2190853632,2184365211,2150986395,2503,1,16,21629
1383694032,5808,67.3000030517578100,25.2563991546630860,35.3805999755859400,249.5549926757812500,-1.9199429750442505,25.2367801666259770,27.1853809356689450,74,127,91,85,54,15104,2230582061,2234501257,2229763026,2151814098,2193646710,2199492041,2190295149,2151674011,2186,2,16,19560
1383694087,5808,65.4100036621093800,25.6061992645263670,35.3877983093261700,248.4674072265625000,-12.2511701583862300,25.5597095489501950,27.1061305999755860,71,126,93,85,54,15098,2237921417,2240800128,2234897124,2152326226,2198757650,2204308534,2193503350,2152039780,2404,1,17,45501
1383694142,5809,64.1299972534179700,25.9536991119384770,35.4113006591796900,246.9450988769531200,-23.4848308563232420,25.9116001129150400,27.0346794128417970,69,127,89,84,56,15112,2245878765,2247915392,2241286061,2152746898,2203789412,2209815314,2197695762,2152473828,182,0,15,3411
1383694274,5808,61.9300003051757800,26.2816009521484380,35.4240989685058600,244.7662963867187500,-35.1871185302734400,26.2790508270263670,26.9861507415771500,67,128,92,85,56,15101,2208779602,2206729033,2200067291,2150800146,2183078939,2183734701,2174721554,2150158409,2816,0,16,49106
1383694343,5808,60.3499984741210940,26.7863998413085940,35.4361000061035160,241.3657073974609400,-49.6719589233398440,26.7351608276367200,26.9578094482421880,65,126,92,86,57,15101,2182094966,2178143158,2172685494,2149203062,2168828169,2167536576,2161942500,2148719698,2381,1,16,13534
1383694574,5807,57.4599990844726560,26.9563007354736330,35.4314002990722660,237.9353027343750000,-56.0393791198730500,26.9361400604248050,27.0311698913574220,65,126,92,85,58,15104,2232399981,2230488768,2222334500,2153033664,2202528420,2204476260,2190970294,2151987629,2579,0,16,29328
1383694632,5806,55.6599998474121100,27.2968997955322270,35.3951988220214840,236.7566070556640600,-61.5459709167480500,27.1101799011230470,27.0163803100585940,70,126,91,85,55,15100,2280670144,2283194843,2274356544,2157885476,2234579565,2239135552,2217718153,2155262930,2203,1,16,6299
1383694687,5807,54.5299987792968750,27.6144008636474600,35.3611984252929700,232.1468048095703000,-73.6002426147461000,27.4919795989990230,27.0766696929931640,63,124,92,85,56,15106,2201048978,2197498889,2190896804,2150979062,2183867337,2182929920,2173380196,2150051977,2014,2,16,62128
1383694899,5808,52.5400009155273440,27.6604995727539060,35.3563003540039060,226.1761016845703000,-78.0431976318359400,27.6329803466796880,27.2966098785400400,57,118,90,84,56,15123,2193143625,2189571611,2183876004,2150709494,2178964224,2177378642,2168963958,2149631149,2149,1,16,2261
1383695264,5807,49.7099990844726560,27.6802005767822270,35.3549003601074200,223.2075958251953000,-79.3953781127929700,27.6759204864501950,27.4196300506591800,57,116,88,81,57,15126,2202776484,2199582994,2193940278,2152459282,2194104987,2190532032,2177073545,2150585728,2549,0,17,24004
1383695319,5807,47.2099990844726560,27.6793003082275400,35.3544006347656250,223.1221008300781200,-79.4300918579101600,27.6770305633544920,27.4232406616210940,55,117,89,82,56,15124,2210228882,2207245504,2201371730,2153672557,2203697645,2199139446,2182577984,2151274797,2621,0,17,60805
1383695374,5808,44.6899986267089840,27.6786003112792970,35.3549003601074200,222.9913940429687500,-79.4423904418945300,27.6774196624755860,27.4291992187500000,55,115,87,83,55,15117,2210619437,2207578697,2201830555,2154253997,2207419328,2201856960,2183857243,2151494427,2648,0,17,15437
1383695429,5805,42.2599983215332000,27.6805992126464840,35.3531990051269500,223.0256042480468800,-79.4685516357421900,27.6782493591308600,27.4273109436035160,54,116,90,85,55,15127,2212739392,2209401417,2203694528,2155223753,2212565696,2205749659,2185911652,2151847305,2469,0,17,15841
1383695516,5807,38.2000007629394500,27.6784992218017580,35.3529014587402340,223.1918029785156200,-79.4296035766601600,27.6770095825195300,27.4199790954589840,55,115,87,83,55,15124,2226517147,2223410166,2217716370,2159306578,2232633088,2223182016,2196813101,2153533476,2062,1,17,55652
1383695575,5808,34.7400016784668000,27.6784992218017580,35.3521995544433600,223.2216033935547000,-79.3912506103515600,27.6757907867431640,27.4189796447753900,55,114,92,84,55,15126,2235722742,2232858358,2227489700,2163203291,2247539520,2235940150,2204609243,2154953188,1674,1,16,10220
1383695630,5807,31.4899997711181640,27.6779003143310550,35.3521003723144500,223.2743988037109400,-79.3654785156250000,27.6749706268310550,27.4166908264160160,54,114,87,84,56,15120,2243054564,2240462281,2235664384,2167520310,2260586340,2246981714,2211424301,2156399232,1292,1,16,10471
1383695685,5807,28.3899993896484380,27.6760005950927730,35.3518981933593750,223.2174072265625000,-79.3602676391601600,27.6748104095459000,27.4196395874023440,55,114,87,83,56,15120,2243109165,2240078436,2235319195,2169285421,2264372790,2249219565,2212126061,2156843053,1029,0,16,27918